TimePST,TemperatureF,Dew PointF,Humidity,Sea Level PressureIn,VisibilityMPH,Wind Direction,Wind SpeedMPH,Gust SpeedMPH,PrecipitationIn,Events,Conditions,WindDirDegrees,DateUTC
12:53 AM,18.0,14.0,84,30.48,10.0,North,-9999.0,-,N/A,,Clear,0,2014-01-13 08:53:00
1:53 AM,16.0,12.9,88,30.51,10.0,North,-9999.0,-,N/A,,Clear,0,2014-01-13 09:53:00
2:53 AM,15.1,12.0,88,30.53,10.0,North,-9999.0,-,N/A,,Clear,0,2014-01-13 10:53:00
3:53 AM,15.1,12.0,88,30.55,10.0,North,-9999.0,-,N/A,,Clear,0,2014-01-13 11:53:00
4:53 AM,16.0,12.0,84,30.56,10.0,North,-9999.0,-,N/A,,Clear,0,2014-01-13 12:53:00
5:53 AM,17.1,14.0,88,30.57,10.0,North,-9999.0,-,N/A,,Mostly Cloudy,0,2014-01-13 13:53:00
6:53 AM,15.1,12.0,88,30.59,10.0,North,-9999.0,-,N/A,,Clear,0,2014-01-13 14:53:00
7:53 AM,19.0,15.1,85,30.61,10.0,North,-9999.0,-,N/A,,Clear,0,2014-01-13 15:53:00
8:53 AM,27.0,19.0,72,30.59,10.0,North,-9999.0,-,N/A,,Clear,0,2014-01-13 16:53:00
9:53 AM,34.0,21.0,59,30.58,10.0,ESE,3.5,-,N/A,,Clear,120,2014-01-13 17:53:00
10:53 AM,39.0,23.0,53,30.55,10.0,NW,6.9,-,N/A,,Clear,320,2014-01-13 18:53:00
11:53 AM,39.9,23.0,51,30.51,10.0,NE,3.5,-,N/A,,Clear,50,2014-01-13 19:53:00
12:53 PM,42.1,21.9,45,30.48,10.0,Calm,Calm,-,N/A,,Clear,0,2014-01-13 20:53:00
1:53 PM,44.1,21.9,42,30.48,10.0,East,3.5,-,N/A,,Clear,90,2014-01-13 21:53:00
2:53 PM,44.1,21.0,40,30.48,10.0,NW,10.4,-,N/A,,Clear,320,2014-01-13 22:53:00
3:53 PM,41.0,21.0,45,30.51,10.0,WNW,11.5,-,N/A,,Clear,290,2014-01-13 23:53:00
4:53 PM,34.0,23.0,64,30.55,10.0,WNW,8.1,-,N/A,,Clear,290,2014-01-14 00:53:00
5:53 PM,34.0,21.0,59,30.56,10.0,WNW,10.4,-,N/A,,Clear,290,2014-01-14 01:53:00
6:53 PM,30.9,21.0,67,30.61,10.0,WNW,9.2,-,N/A,,Clear,290,2014-01-14 02:53:00
7:53 PM,30.0,19.9,66,30.59,10.0,Variable,6.9,-,N/A,,Clear,0,2014-01-14 03:53:00
8:53 PM,28.9,19.9,69,30.57,10.0,North,-9999.0,-,N/A,,Clear,0,2014-01-14 04:53:00
9:53 PM,30.9,19.0,61,30.53,10.0,Variable,6.9,-,N/A,,Partly Cloudy,0,2014-01-14 05:53:00
10:53 PM,27.0,19.0,72,30.54,10.0,WNW,10.4,-,N/A,,Clear,300,2014-01-14 06:53:00
11:53 PM,25.0,19.0,78,30.53,10.0,North,5.8,-,N/A,,Clear,350,2014-01-14 07:53:00